Regional Weather Roundup
Issued by NWS

Home | Current Version | Previous Version | Graphics & Text | Print | Product List | Glossary On
Versions: 1 2 3 4 5 6 7 8 9 10 11 12 13 14 15 16 17 18 19 20 21 22 23 24 25 26 27 28 29 30 31 32 33 34 35 36 37 38 39 40 41 42 43 44 45 46 47 48 49 50
000
ASUS43 KDTX 200610
RWRMI
MICHIGAN HOURLY REGIONAL WEATHER ROUNDUP
NATIONAL WEATHER SERVICE DETROIT/PONTIAC MI
100 AM EST SAT JAN 20 2018

NOTE: "FAIR" INDICATES FEW OR NO CLOUDS BELOW 12,000 FEET WITH NO
SIGNIFICANT WEATHER AND/OR OBSTRUCTION TO VISIBILITY.

MIZ047>049-052>055-059>063-066>070-074>076-081>083-200700-
SOUTHEAST LOWER MICHIGAN

CITY           SKY/WX    TMP DP  RH WIND       PRES   REMARKS
ADRIAN         FAIR      32  23  69 W9        29.81F WCI  24
6HR MIN TEMP:  31; 6HR MAX TEMP:  33;

ALMA           FAIR      37  27  67 SW16G22   29.67F WCI  27
6HR MIN TEMP:  32; 6HR MAX TEMP:  37;

ANN ARBOR      FAIR      34  24  67 S15       29.77F WCI  24
BAD AXE        FAIR      35  25  65 W20G31    29.62S WCI  24
6HR MIN TEMP:  35; 6HR MAX TEMP:  38;

CARO           FAIR      37  26  64 SW21G29   29.64S WCI  26
DETROIT CITY   FAIR      35  23  61 SW18G28   29.75F WCI  24
6HR MIN TEMP:  33; 6HR MAX TEMP:  37;

DETROIT        FAIR      34  24  67 SW20G28   29.78S WCI  23
6HR MIN TEMP:  32; 6HR MAX TEMP:  36;

FLINT          FAIR      37  24  59 SW21G26   29.70F WCI  26
6HR MIN TEMP:  35; 6HR MAX TEMP:  38;

GROSSE ILE     FAIR      36  25  65 W17G25    29.78S WCI  25
6HR MIN TEMP:  33; 6HR MAX TEMP:  38;

HILLSDALE      FAIR      34  23  64 SW14G24   29.78F WCI  24
HOWELL         FAIR      37  26  65 SW14G25   29.72S WCI  28
6HR MIN TEMP:  35; 6HR MAX TEMP:  37;


CITY           SKY/WX    TMP DP  RH WIND       PRES   REMARKS
JACKSON        FAIR      36  24  62 SW24G35   29.76S WCI  24
6HR MIN TEMP:  35; 6HR MAX TEMP:  37;

LAMBERTVILLE   FAIR      35  25  66 SW17G26   29.82S WCI  25
6HR MIN TEMP:  33; 6HR MAX TEMP:  37;

LANSING        FAIR      35  25  66 SW18G24   29.72S WCI  24
6HR MIN TEMP:  35; 6HR MAX TEMP:  36;

LAPEER         FAIR      38  24  57 W17G25    29.68S WCI  29
6HR MIN TEMP:  35; 6HR MAX TEMP:  38;

MONROE         FAIR      34  24  65 SW17G30   29.80R WCI  24
6HR MIN TEMP:  33; 6HR MAX TEMP:  38;

MT. CLEMENS    FAIR     N/A N/A N/A SW15G25     N/A
PONTIAC        FAIR      35  24  64 SW12      29.71S WCI  27
6HR MIN TEMP:  32; 6HR MAX TEMP:  35;

PORT HOPE        N/A     35  24  64 SW12G25   29.57F WCI  27
6HR MIN TEMP:  35; 6HR MAX TEMP:  39;

PORT HURON     FAIR      36  23  60 SW10      29.71S WCI  28
TRI CITIES     FAIR      36  26  67 SW22      29.63F WCI  25
6HR MIN TEMP:  34; 6HR MAX TEMP:  36;

MIDLAND        FAIR      37  27  66 SW8G21    29.63F WCI  31
6HR MIN TEMP:  34; 6HR MAX TEMP:  37;

TROY           FAIR      35  24  64 SW12G20   29.75S WCI  27
SAGINAW HB     FAIR      36  27  69 SW17G23   29.65S WCI  25
$$
MIZ043>046-050>051-056>058-064>065-071>073-077>080-200700-
SOUTHWEST LOWER MICHIGAN

CITY           SKY/WX    TMP DP  RH WIND       PRES   REMARKS
BATTLE CREEK   FAIR      34  24  67 SW18      29.77F WCI  23
6HR MIN TEMP:  33; 6HR MAX TEMP:  35;

BENTON HARBOR  FAIR      39  25  57 SW12      29.79S WCI  32
6HR MIN TEMP:  34; 6HR MAX TEMP:  40;

BIG RAPIDS     FAIR      37  28  72 W12G26    29.65R WCI  29
6HR MIN TEMP:  33; 6HR MAX TEMP:  37;

COLDWATER      FAIR      34  24  67 SW15G25   29.81S WCI  24
6HR MIN TEMP:  33; 6HR MAX TEMP:  36;

FREMONT        FAIR      37  27  69 SW13      29.70R WCI  28
6HR MIN TEMP:  33; 6HR MAX TEMP:  37;

HOLLAND        FAIR      37  28  70 SW23G32   29.74S WCI  26
6HR MIN TEMP:  34; 6HR MAX TEMP:  38;

GRAND RAPIDS   FAIR      39  26  59 SW24G30   29.71F WCI  28
6HR MIN TEMP:  34; 6HR MAX TEMP:  40;

IONIA          FAIR      37  26  65 SW18G29   29.70S WCI  26
6HR MIN TEMP:  33; 6HR MAX TEMP:  37;

KALAMAZOO      FAIR      36  24  62 SW13      29.78F WCI  27
6HR MIN TEMP:  33; 6HR MAX TEMP:  37;

LUDINGTON      FAIR      37  32  81 SW14G25   29.66R WCI  29
6HR MIN TEMP:  35; 6HR MAX TEMP:  38;

MARSHALL       FAIR      34  23  65 SW17G24   29.77S WCI  23
6HR MIN TEMP:  33; 6HR MAX TEMP:  36;

MOUNT PLEASANT FAIR      38  28  66 SW16G25   29.64S WCI  29
6HR MIN TEMP:  36; 6HR MAX TEMP:  38;

MUSKEGON       FAIR      38  30  73 SW23      29.71S WCI  27
6HR MIN TEMP:  35; 6HR MAX TEMP:  38;

SOUTH HAVEN    FAIR      40  26  56 SW17G30   29.77F WCI  32
$$
MIZ016>042-200700-
NORTHERN LOWER MICHIGAN

CITY           SKY/WX    TMP DP  RH WIND       PRES   REMARKS
ALPENA         FAIR      38  28  67 SW9       29.50S WCI  31
6HR MIN TEMP:  37; 6HR MAX TEMP:  39;

BEAVER ISLAND  FAIR      37  31  77 SW14G22   29.54R WCI  29
6HR MIN TEMP:  36; 6HR MAX TEMP:  38;

BELLAIRE       FAIR      39  32  75 SW9G20    29.58R WCI  33
CADILLAC       FAIR      36  27  72 SW15G23   29.59R WCI  26
CHARLEVOIX     FAIR      38  31  73 SW18G28   29.57R WCI  29
6HR MIN TEMP:  37; 6HR MAX TEMP:  39;

FRANKFORT      FAIR      39  33  81 SW12G18   29.62R WCI  31
GAYLORD        FAIR      36  28  73 W24G36    29.51R WCI  24
6HR MIN TEMP:  33; 6HR MAX TEMP:  38;

GRAYLING       FAIR      37  26  65 W14G23    29.56R WCI  28
6HR MIN TEMP:  34; 6HR MAX TEMP:  37;

HARBOR SPRINGS FAIR      37  30  76 W9        29.53R WCI  30
HOUGHTON LAKE  FAIR      36  27  69 W14G24    29.58R WCI  27
6HR MIN TEMP:  32; 6HR MAX TEMP:  36;

MANISTEE       FAIR      40  29  64 SW16G22   29.64R WCI  31
OSCODA         FAIR      34  25  69 SW18G25   29.55R WCI  23
6HR MIN TEMP:  32; 6HR MAX TEMP:  35;

PELLSTON       FAIR      39  30  70 W28G38    29.50R WCI  28
6HR MIN TEMP:  37; 6HR MAX TEMP:  40;

ROGERS CITY    FAIR      39  28  65 W17G25    29.48S WCI  30
TRAVERSE CITY  FAIR      41  29  62 W13G23    29.59R
6HR MIN TEMP:  37; 6HR MAX TEMP:  41;

$$
MIZ007>008-015-200700-
EASTERN UPPER MICHIGAN

CITY           SKY/WX    TMP DP  RH WIND       PRES   REMARKS
KINROSS        FAIR      35  29  78 W13G20    29.48R WCI  26
6HR MIN TEMP:  34; 6HR MAX TEMP:  36;

MACKINAC ISLAN FAIR      36  31  81 SW15G31   29.50R WCI  26
6HR MIN TEMP:  33; 6HR MAX TEMP:  37;

NEWBERRY       FAIR      32  28  86 SW12G17   29.47R WCI  23
6HR MIN TEMP:  32; 6HR MAX TEMP:  34;

S. S. MARIE    FAIR      37  30  75 W15G21    29.45R WCI  28
6HR MIN TEMP:  37; 6HR MAX TEMP:  38;

MUNISING         N/A     36  28  73 SW10      29.49R WCI  28
6HR MIN TEMP:  33; 6HR MAX TEMP:  37;

$$
MIZ004>006-011>014-085-200700-
CENTRAL UPPER MICHIGAN

CITY           SKY/WX    TMP DP  RH WIND       PRES   REMARKS
ESCANABA       FAIR      33  26  75 SW6       29.55R WCI  28
6HR MIN TEMP:  28; 6HR MAX TEMP:  33;

MENOMINEE      FAIR      38  28  67 W9        29.59R WCI  31
6HR MIN TEMP:  34; 6HR MAX TEMP:  38;

SAWYER-GWINN   FAIR      32  25  74 W5        29.50R WCI  28
6HR MIN TEMP:  28; 6HR MAX TEMP:  32;

$$
MIZ001>003-009>011-084-200700-
WESTERN UPPER MICHIGAN

CITY           SKY/WX    TMP DP  RH WIND       PRES   REMARKS
IRON MOUNTAIN  FAIR      36  26  67 W10       29.53R WCI  28
6HR MIN TEMP:  27; 6HR MAX TEMP:  37;

HOUGHTON       FAIR      38  29  70 W23G31    29.49R WCI  27
6HR MIN TEMP:  37; 6HR MAX TEMP:  42;

COPPER HARBOR    N/A     40  30  67 N17G33    29.45R WCI  31
6HR MIN TEMP:  39; 6HR MAX TEMP:  43;

IRONWOOD       FAIR      35  27  72 W12       29.59R WCI  27
6HR MIN TEMP:  35; 6HR MAX TEMP:  40;

$$

ABBREVIATIONS USED IN REMARKS
   TC - TEMPERATURE IN CELSIUS
  WCI - WIND CHILL INDEX
   HX - HEAT INDEX
  VSB - VISIBILITY





USA.gov is the U.S. government's official web portal to all federal, state and local government web resources and services.